Regional Weather Roundup
Issued by NWS Cleveland, OH

Home | Current Version | Previous Version | Text Only | Print | Product List | Glossary Off
Versions: 1 2 3 4 5 6 7 8 9 10 11 12 13 14 15 16 17 18 19 20 21 22 23 24 25 26 27 28 29 30 31 32 33 34 35 36 37 38 39 40 41 42 43 44 45 46 47 48 49 50

000
ASUS41 KCLE 251600
RWRCLE
OHIO REGIONAL WEATHER ROUNDUP
NATIONAL WEATHER SERVICE WILMINGTON, OH
1100 AM EST SUN FEB 25 2018

NOTE: "FAIR" INDICATES FEW OR NO CLOUDS BELOW 12,000 FEET WITH NO
SIGNIFICANT WEATHER AND/OR OBSTRUCTIONS TO VISIBILITY.

OHZ001>008-015>018-024>027-034-035-043-044-251700-
   NORTHWEST OHIO

CITY           SKY/WX    TMP DP  RH WIND       PRES   REMARKS
DEFIANCE       CLOUDY    40  30  67 SW16G32   29.93R
FINDLAY        CLOUDY    41  32  70 W23G31    29.92R
TOLEDO EXPRESS PTSUNNY   43  32  65 SW31G43   29.88R
TOLEDO EXEC    FAIR      41  31  67 W29G38    29.89R
LIMA           PTSUNNY   39  33  79 W21G29    29.94R
$$

OHZ009>014-019>023-028>033-038-089-251700-
   NORTHEAST OHIO

CITY           SKY/WX    TMP DP  RH WIND       PRES   REMARKS
CLE-HOPKINS    PTSUNNY   47  36  65 SW20G25   29.89R
CLE-LAKEFRONT  FAIR      47  35  63 SW18      29.85R
CUY CO. ARPT   PTSUNNY   50  39  66 SW22G28   29.85R
LORAIN-ELYRIA  FAIR      45  33  63 W24       29.88R
ASHTABULA        N/A     50  39  66 SW16G22   29.83
AKRON-CANTON   CLOUDY    49  35  58 SW13G21   29.88R
WOOSTER        NOT AVBL
MANSFIELD      FAIR      44  35  70 SW18G30   29.91R
YOUNGSTOWN     CLOUDY    51  40  65 SW17      29.85R
$$

OHZ042-051>053-060>062-070>072-077>081-251700-
  SOUTHWEST OHIO

CITY           SKY/WX    TMP DP  RH WIND       PRES   REMARKS
CINC-COVINGTON CLOUDY    46  37  71 SW12      30.03R
CINC-LUNKEN    FAIR      48  38  68 W8        30.05R
HAMILTON       FAIR      47  36  65 SW10      30.03R
DAYTON         NOT AVBL
WRIGHT-PAT AFB MOSUNNY   44  32  63 SW21G26   29.99R
DAYTON GENERAL FAIR      45  34  65 W9        30.00R
WILMINGTON     FAIR      47  41  80 W17       29.99R
$$

OHZ036-037-039>041-045>050-054>059-063>069-073>076-082>088-251700-
  CENTRAL AND SOUTHEAST OHIO

CITY           SKY/WX    TMP DP  RH WIND       PRES   REMARKS
COLUMBUS       PTSUNNY   48  39  71 SW14      29.97R
OSU AIRPORT    FAIR      46  40  79 SW14      29.96R
BOLTON FIELD   SUNNY     45  37  76 W16       29.98R
RICKENBACK AFB NOT AVBL
NEWARK         FAIR      49  38  65 W16       29.96R
MARION         FAIR      43  33  68 W14       29.95R
LANCASTER      FAIR      47  37  68 W12       29.99R
ZANESVILLE     FAIR      50  39  66 W13       29.95R
NEW PHILLY     FAIR      51  36  56 SW9       29.92R
$$



USA.gov is the U.S. government's official web portal to all federal, state and local government web resources and services.